SCOUT B DEB, 28265

Orbit data source: Space-Track

SCOUT B DEB, 28265 is space debris in LEO originally from a launch on Fri, 10 Jun 1966 UTC launched from the Wallops Island (WLPIS). Debris objects in space refer to the collection of defunct objects orbiting the Earth. Examples of debris include non-operational satellites, rocket bodies, and fragments generated from explosions, collisions, or faulty payload assembly.

Loading next visibility...
Identifier
28265, 1966-052E
Orbit
LEO
Last TLE update
21 hours ago
Origin
Manufacturer
Unknown
Mission
Spacecraft
Bus & Motor
Unknown
Mass
Unknown
Launch date (UTC)
1966-06-10 (59 years ago)
Launch vehicle
Unknown
Launch site
Wallops Island (WLPIS)
Object type
Payload
Rocket body
Debris
Shape & HBR
Unknown
Radar Cross Section
Small (<0.1 m²)

Expand to show TLE details & history

TLE from 21 hours ago
0 SCOUT B DEB
1 28265U 66052E   25174.79420925  .00005511  00000-0  56459-2 0  9992
2 28265  40.8643 337.1644 1993926 170.0167 194.7098 10.65042738 34819
Epoch: 2025-06-23T19:03Z
TLE epoch observation values (Epoch: 2025-06-23T19:03:39.679Z)
Latitude
-0.00004°
Longitude
139.04965°
Altitude
4,047.628 km
Speed
5.551 km/s
True Right ascension
22h 28m 39s
True Declination
0° 00' 00"
Sunlit
Object was in daylight at epoch
Visualization orbit readout
Latitude
7.74412°
Longitude
-52.36551°
Altitude
611.42 km
Speed
8.271 km/s
Apparent Right ascension
12h 00m 47s
Apparent Declination
-19° 54' 54"
Sunlit
Object is in daylight
Visualization observer readout
Local Sidereal Time
03:33:12
Azimuth
82.356° E
Elevation
-40.653°
Doppler factor
1
Orbital elements
Apogee altitude
4,090.28 km
Perigee altitude
609.643 km
Semi-major axis
8,728.098 km
Eccentricity
0.19939
Inclination
40.8643°
RAAN
337.1644°
Arg. of periapsis
170.0167°
True anomaly
Unknown
Mean anomaly
194.7098°
Eccentric anomaly
Unknown
Mean motion
2.66173 °/min
Orbital period
135.25 mins
BSTAR
0.0056459
Loading maneuver chart data...
Loading SW <> Apogee altitude chart data...
Loading historical data...
Loading historical data...
Loading historical data...
Loading historical data...
Loading historical data...
Loading historical data...
Loading historical data...
Other satellites on launch #52 in the year 1966 (1966-06-10 UTC)

SCOUT B DEB Visibility forecast

Observer location: undefined°, undefined°

Span
Click to sort rows by Start time (UTC) header in descending order
Start Az.
Max El. time (UTC)
Max El. Az.
Max El.
End time (UTC)
End Az.
19 mins2025-06-24 18:06:23.265Z279.837° WNW2025-06-24 18:19:23.265Z176.165° S44.972°2025-06-24 18:25:23.265Z104.796° ESE
10 mins2025-06-24 20:35:23.265Z277.192° WNW2025-06-24 20:41:23.265Z219.957° SW26.981°2025-06-24 20:45:23.265Z163.637° S
33 mins2025-06-25 11:34:23.265Z194.81° SSW2025-06-25 11:53:23.265Z139.825° SSE32.017°2025-06-25 12:07:23.265Z80.125° E
32 mins2025-06-25 13:59:23.265Z234.522° WSW2025-06-25 14:19:23.265Z166.255° S43.677°2025-06-25 14:31:23.265Z75.518° E
|